C/2019 N1 ( ATLAS )

Japanese version
Home page
Updated on December 24, 2019

---------------------------------------------------------------------

* Profile

Discovery Date July 5, 2019
Magnitude 18.6 mag
Discoverer Asteroid Terrestrial-Impact Last Alert System (ATLAS) search program

* Pictures

* Orbital Elements

Epoch 2020 Dec. 17.0 TT = JDT 2459200.5
T 2020 Dec. 1.78670 TT                                  Williams
q   1.7044727            (2000.0)            P               Q
z  +0.0000336      Peri.  193.44845     -0.93822768     +0.25615349
 +/-0.0000051      Node    13.57225     -0.14503290     +0.31926080
e   0.9999427      Incl.   82.42738     -0.31415644     -0.91239132
From 295 observations 2019 June 10-Dec. 3, mean residual 0".4.

* Finding Charts

* Magnitudes Graph

        m1 = 6.5 + 5 log d + 10.0 log r

---------------------------------------------------------------------

The orbital elements are published on M.P.E.C. 2019-X94.
The charts are made with StellaNavigator Ver.10 (AstroArts).
The magnitudes graphs are made with Comet for Windows.

---------------------------------------------------------------------

Copyright(C) Seiichi Yoshida (comet@aerith.net). All rights reserved.